Leesburg, VA

12:39 PM EST on December 11, 2017 (GMT -0500)
Leesburg Executive

Weather History for KJYO - August, 2013

Change the Weather History Date:

Saturday, August 3, 2013

  Actual Average (KIAD) Record (KIAD)
Temperature  
Mean Temperature 70 °F -  
Max Temperature 73 °F 89 °F 99 °F (1991)
Min Temperature 66 °F 65 °F 50 °F (1976)
Cooling Degree Days 4    
Growing Degree Days 20 (Base 50)    
Moisture  
Dew Point 68 °F    
Average Humidity 94    
Maximum Humidity 100    
Minimum Humidity 83    
Precipitation  
Precipitation 0.15 in - - ()
Sea Level Pressure  
Sea Level Pressure 29.97 in    
Wind  
Wind Speed 3 mph (WNW)    
Max Wind Speed 9 mph    
Max Gust Speed -    
Visibility 9 miles    
Events Rain    
Averages and records for this station are not official NWS values.
T = Trace of Precipitation, MM = Missing Value Source: NWS Daily Summary

Daily Weather History Graph

Daily Weather History Graph

Search for Another Location

Airport or City:

Trip Planner

Search our weather history database for the weather conditions in past years. The results will help you decide how hot, cold, wet, or windy it might be!

Date:

Astronomy

Aug. 03, 2013 Rise Set
Actual Time 6:12 AM EDT 8:19 PM EDT
Civil Twilight 5:43 AM EDT 8:48 PM EDT
Nautical Twilight 5:06 AM EDT 9:25 PM EDT
Astronomical Twilight 4:27 AM EDT 10:04 PM EDT
Moon 3:20 AM EDT (8/3) 6:00 PM EDT (8/3)
Length of Visible Light 15h 05m
Length of Day
14h 06m
Waning Crescent, 9% of the Moon is Illuminated
Aug 3
Waning Crescent
Aug 6
New
Aug 14
First Quarter
Aug 20
Full
Aug 28
Last Quarter

Hourly Weather History & Observations

Time (EDT) Temp. Dew Point Humidity Pressure Visibility Wind Dir Wind Speed Gust Speed Precip Events Conditions
12:15 AM 69.8 °F 69.8 °F 100% 29.98 in 10.0 mi WSW 4.6 mph - N/A   Clear
12:35 AM 69.8 °F 68.0 °F 94% 29.98 in 10.0 mi WSW 3.5 mph - N/A   Clear
12:55 AM 69.8 °F 68.0 °F 94% 29.98 in 10.0 mi West 4.6 mph - N/A   Clear
1:15 AM 68.0 °F 68.0 °F 100% 29.98 in 10.0 mi West 3.5 mph - N/A   Clear
1:35 AM 69.8 °F 68.0 °F 94% 29.97 in 10.0 mi Calm Calm - N/A   Clear
1:55 AM 68.0 °F 68.0 °F 100% 29.96 in 10.0 mi Calm Calm - N/A   Clear
2:15 AM 68.0 °F 66.2 °F 94% 29.96 in 10.0 mi Calm Calm - N/A   Clear
2:35 AM 68.0 °F 68.0 °F 100% 29.96 in 10.0 mi SW 3.5 mph - N/A   Clear
2:55 AM 68.0 °F 68.0 °F 100% 29.96 in 10.0 mi Calm Calm - N/A   Clear
3:15 AM 66.2 °F 66.2 °F 100% 29.96 in 10.0 mi NW 3.5 mph - N/A   Clear
3:35 AM 68.0 °F 68.0 °F 100% 29.95 in 10.0 mi Calm Calm - N/A   Clear
3:55 AM 69.8 °F 68.0 °F 94% 29.95 in 10.0 mi South 3.5 mph - N/A   Clear
4:15 AM 66.2 °F 66.2 °F 100% 29.96 in 10.0 mi SW 3.5 mph - N/A   Clear
4:35 AM 68.0 °F 64.4 °F 88% 29.96 in 10.0 mi WSW 5.8 mph - N/A   Scattered Clouds
4:55 AM 69.8 °F 64.4 °F 83% 29.96 in 10.0 mi Calm Calm - N/A   Scattered Clouds
5:15 AM 69.8 °F 64.4 °F 83% 29.97 in 10.0 mi SW 4.6 mph - N/A   Clear
5:35 AM 68.0 °F 64.4 °F 88% 29.97 in 10.0 mi SSW 5.8 mph - N/A   Clear
5:55 AM 68.0 °F 64.4 °F 88% 29.97 in 10.0 mi SW 5.8 mph - N/A   Clear
6:15 AM 69.8 °F 64.4 °F 83% 29.97 in 10.0 mi SSW 4.6 mph - N/A   Clear
6:35 AM 68.0 °F 64.4 °F 88% 29.98 in 10.0 mi SSW 5.8 mph - N/A   Clear
6:55 AM 68.0 °F 64.4 °F 88% 29.98 in 10.0 mi Calm Calm - N/A   Clear
7:15 AM 68.0 °F 64.4 °F 88% 29.98 in 10.0 mi Calm Calm - N/A   Clear
7:35 AM 68.0 °F 64.4 °F 88% 29.98 in 10.0 mi SW 4.6 mph - N/A   Clear
7:55 AM 68.0 °F 64.4 °F 88% 29.99 in 10.0 mi Calm Calm - N/A   Clear
8:15 AM 68.0 °F 66.2 °F 94% 29.99 in 10.0 mi Calm Calm - N/A Rain Light Rain
8:35 AM 69.8 °F 68.0 °F 94% 29.98 in 10.0 mi Calm Calm - N/A   Light Drizzle
8:55 AM 71.6 °F 69.8 °F 94% 29.98 in 10.0 mi South 3.5 mph - N/A Rain Light Rain
9:15 AM 69.8 °F 68.0 °F 94% 29.99 in 10.0 mi Calm Calm - N/A Rain Light Rain
9:35 AM 69.8 °F 68.0 °F 94% 29.99 in 10.0 mi WNW 3.5 mph - N/A Rain Light Rain
9:55 AM 69.8 °F 68.0 °F 94% 30.00 in 10.0 mi Calm Calm - N/A   Overcast
10:15 AM 71.6 °F 69.8 °F 94% 30.00 in 10.0 mi Calm Calm - N/A   Overcast
10:35 AM 71.6 °F 69.8 °F 94% 30.00 in 10.0 mi Calm Calm - N/A   Overcast
10:55 AM 71.6 °F 69.8 °F 94% 29.99 in 10.0 mi Calm Calm - N/A Rain Light Rain
11:15 AM 73.4 °F 69.8 °F 88% 30.00 in 10.0 mi Calm Calm - N/A   Overcast
11:35 AM 73.4 °F 68.0 °F 83% 29.99 in 10.0 mi Calm Calm - N/A   Overcast
11:55 AM 73.4 °F 68.0 °F 83% 29.99 in 10.0 mi Calm Calm - N/A Rain Light Rain
12:15 PM 73.4 °F 68.0 °F 83% 29.99 in 10.0 mi Calm Calm - N/A Rain Light Rain
12:35 PM 73.4 °F 69.8 °F 88% 29.99 in 10.0 mi North 5.8 mph - N/A Rain Light Rain
12:55 PM 73.4 °F 68.0 °F 83% 29.99 in 10.0 mi North 9.2 mph - N/A Rain Light Rain
1:15 PM 71.6 °F 68.0 °F 88% 29.99 in 7.0 mi NNE 5.8 mph - 0.01 in Rain Rain
1:35 PM 71.6 °F 69.8 °F 94% 29.99 in 10.0 mi North 9.2 mph - 0.02 in Rain Rain
1:55 PM 71.6 °F 69.8 °F 94% 29.98 in 10.0 mi North 8.1 mph - 0.03 in Rain Rain
2:15 PM 71.6 °F 69.8 °F 94% 29.98 in 10.0 mi North 6.9 mph - N/A Rain Light Rain
2:35 PM 73.4 °F 69.8 °F 88% 29.97 in 10.0 mi North 3.5 mph - N/A Rain Light Rain
2:55 PM 73.4 °F 69.8 °F 88% 29.96 in 10.0 mi North 4.6 mph - N/A Rain Light Rain
3:15 PM 73.4 °F 69.8 °F 88% 29.96 in 10.0 mi NNW 3.5 mph - N/A Rain Light Rain
3:35 PM 71.6 °F 71.6 °F 100% 29.96 in 10.0 mi NW 4.6 mph - N/A Rain Light Rain
3:55 PM 71.6 °F 69.8 °F 94% 29.96 in 7.0 mi NNW 5.8 mph - 0.01 in Rain Light Rain
4:15 PM 71.6 °F 69.8 °F 94% 29.96 in 10.0 mi NW 4.6 mph - N/A Rain Light Rain
4:35 PM 71.6 °F 69.8 °F 94% 29.96 in 10.0 mi North 4.6 mph - 0.01 in Rain Light Rain
4:55 PM 71.6 °F 69.8 °F 94% 29.97 in 10.0 mi NNW 6.9 mph - 0.01 in   Overcast
5:15 PM 71.6 °F 69.8 °F 94% 29.97 in 10.0 mi Calm Calm - N/A   Overcast
5:35 PM 71.6 °F 69.8 °F 94% 29.96 in 10.0 mi Calm Calm - N/A   Overcast
5:55 PM 71.6 °F 69.8 °F 94% 29.96 in 10.0 mi Calm Calm - N/A   Overcast
6:15 PM 71.6 °F 69.8 °F 94% 29.95 in 10.0 mi Calm Calm - N/A   Overcast
6:35 PM 71.6 °F 69.8 °F 94% 29.95 in 10.0 mi Calm Calm - N/A   Overcast
6:55 PM 71.6 °F 69.8 °F 94% 29.95 in 10.0 mi Calm Calm - N/A   Overcast
7:15 PM 69.8 °F 69.8 °F 100% 29.96 in 10.0 mi NW 3.5 mph - N/A   Overcast
7:35 PM 69.8 °F 69.8 °F 100% 29.96 in 7.0 mi NW 4.6 mph - N/A Rain Rain
7:55 PM 69.8 °F 69.8 °F 100% 29.97 in 10.0 mi North 6.9 mph - N/A Rain Light Rain
8:15 PM 69.8 °F 68.0 °F 94% 29.97 in 10.0 mi North 6.9 mph - N/A Rain Light Rain
8:35 PM 68.0 °F 68.0 °F 100% 29.97 in 5.0 mi WSW 4.6 mph - 0.06 in Rain Heavy Rain
8:55 PM 68.0 °F 68.0 °F 100% 29.96 in 5.0 mi Calm Calm - 0.10 in Rain Light Rain
9:15 PM 68.0 °F 68.0 °F 100% 29.97 in 5.0 mi Calm Calm - N/A   Overcast
9:35 PM 68.0 °F 68.0 °F 100% 29.97 in 5.0 mi Calm Calm - N/A   Overcast
9:55 PM 68.0 °F 68.0 °F 100% 29.97 in 4.0 mi West 3.5 mph - N/A   Overcast
10:15 PM 68.0 °F 68.0 °F 100% 29.97 in 5.0 mi WSW 4.6 mph - N/A   Mostly Cloudy
10:35 PM 68.0 °F 68.0 °F 100% 29.96 in 7.0 mi SW 3.5 mph - N/A   Overcast
10:55 PM 68.0 °F 68.0 °F 100% 29.97 in 7.0 mi West 5.8 mph - N/A   Mostly Cloudy
11:15 PM 68.0 °F 68.0 °F 100% 29.97 in 7.0 mi West 4.6 mph - N/A   Scattered Clouds
11:35 PM 68.0 °F 68.0 °F 100% 29.97 in 7.0 mi West 4.6 mph - N/A   Clear
11:55 PM 68.0 °F 68.0 °F 100% 29.97 in 5.0 mi Calm Calm - N/A   Clear